Total_Precipitation_Accumulation
2.16 2.21 2.21 2.11 2.09 2.16 2.15 2.01 1.98 1.95 1.82 1.76 1.69 1.60 1.54 1.54 1.61 1.73 1.77 1.83 1.90 1.97 2.08 2.11 2.14 2.15 2.24 2.24 2.29 2.35 2.52 2.66 2.61 2.28 2.07 1.98 1.91 1.78 1.81 1.82 1.79 1.72 1.53
1.89 1.84 1.86 1.90 1.86 1.88 1.86 1.75 1.74 1.81 1.73 1.68 1.58 1.48 1.37 1.36 1.42 1.45 1.48 1.55 1.69 1.72 1.78 1.86 1.81 1.86 1.95 1.94 2.01 2.07 2.17 2.32 2.36 2.34 2.24 2.16 2.03 1.88 1.90 1.89 1.59 1.39 1.37
1.82 1.77 1.73 1.77 1.81 1.79 1.73 1.70 1.67 1.72 1.71 1.62 1.49 1.41 1.36 1.30 1.32 1.35 1.40 1.42 1.49 1.56 1.58 1.63 1.64 1.70 1.65 1.60 1.67 1.78 1.84 1.92 2.15 2.17 2.07 2.03 1.88 1.73 1.88 1.79 1.64 1.71 1.34
1.74 1.71 1.75 1.81 1.87 1.85 1.83 1.83 1.77 1.68 1.61 1.55 1.50 1.41 1.35 1.29 1.29 1.31 1.31 1.40 1.44 1.44 1.43 1.44 1.40 1.43 1.46 1.52 1.55 1.72 1.81 1.95 2.05 2.05 1.97 1.91 1.82 1.74 1.88 1.87 1.86 1.79 1.49
1.63 1.67 1.74 1.82 1.84 1.76 1.80 1.78 1.75 1.74 1.61 1.56 1.49 1.44 1.31 1.18 1.11 1.16 1.19 1.25 1.36 1.39 1.38 1.30 1.27 1.33 1.41 1.42 1.37 1.53 1.70 1.87 1.87 1.87 1.86 1.88 1.80 1.86 1.81 1.72 1.79 1.84 1.69
1.73 1.70 1.67 1.68 1.63 1.60 1.60 1.64 1.57 1.55 1.56 1.52 1.41 1.32 1.25 1.12 1.16 1.15 1.18 1.26 1.33 1.35 1.29 1.27 1.22 1.21 1.21 1.23 1.20 1.30 1.52 1.63 1.74 1.81 1.82 1.84 1.83 1.93 1.94 1.90 1.90 1.94 1.89
1.64 1.61 1.53 1.47 1.43 1.46 1.43 1.44 1.49 1.56 1.55 1.46 1.35 1.32 1.31 1.27 1.14 1.02 1.04 1.13 1.25 1.24 1.24 1.29 1.14 1.02 1.13 1.12 1.15 1.16 1.20 1.25 1.38 1.61 1.79 1.85 1.98 2.12 2.22 2.13 2.06 2.01 1.99
1.62 1.54 1.42 1.32 1.29 1.40 1.36 1.37 1.44 1.45 1.43 1.43 1.41 1.45 1.46 1.25 1.00 0.84 0.95 1.15 1.26 1.16 1.12 1.19 1.25 1.26 1.17 1.15 1.16 1.20 1.21 1.19 1.20 1.28 1.55 1.66 1.70 1.92 2.16 2.19 2.20 2.10 2.06
1.58 1.48 1.33 1.25 1.28 1.31 1.25 1.28 1.37 1.36 1.33 1.36 1.38 1.44 1.42 1.27 1.05 0.88 0.92 1.09 1.21 1.18 1.15 1.11 1.10 1.11 1.09 1.13 1.22 1.39 1.42 1.37 1.12 1.16 1.30 1.39 1.44 1.58 1.74 1.98 2.21 2.32 2.20
1.61 1.51 1.37 1.34 1.34 1.34 1.35 1.32 1.29 1.28 1.25 1.24 1.28 1.38 1.33 1.23 1.03 0.84 0.83 0.91 1.06 1.21 1.32 1.29 1.19 1.09 1.05 1.10 1.24 1.44 1.50 1.47 1.46 1.57 1.67 1.64 1.60 1.65 1.62 1.82 2.18 2.35 2.28
1.61 1.56 1.56 1.55 1.48 1.43 1.45 1.42 1.36 1.26 1.25 1.28 1.28 1.33 1.38 1.20 0.98 0.83 0.83 0.87 0.99 1.15 1.25 1.31 1.23 1.13 1.09 1.12 1.21 1.38 1.46 1.49 1.74 2.09 2.08 1.91 1.79 1.73 1.64 1.67 1.91 2.12 2.24
1.70 1.67 1.63 1.54 1.47 1.46 1.54 1.47 1.43 1.47 1.42 1.41 1.36 1.36 1.32 1.14 0.91 0.82 0.82 0.83 0.87 1.01 1.15 1.17 1.20 1.16 1.11 1.14 1.16 1.29 1.45 1.63 1.91 2.26 2.22 1.98 1.78 1.67 1.62 1.55 1.64 1.81 2.00
1.79 1.74 1.66 1.57 1.51 1.53 1.57 1.47 1.38 1.48 1.44 1.34 1.25 1.27 1.20 1.09 0.94 0.83 0.81 0.82 0.81 0.84 0.93 1.00 1.03 1.03 1.08 1.19 1.26 1.32 1.46 1.72 1.98 2.10 2.00 1.81 1.69 1.64 1.60 1.57 1.57 1.72 1.84
1.70 1.66 1.66 1.63 1.51 1.43 1.41 1.35 1.31 1.33 1.39 1.37 1.27 1.21 1.10 1.00 0.87 0.77 0.75 0.76 0.75 0.73 0.79 0.90 1.02 1.10 1.18 1.32 1.51 1.60 1.61 1.70 1.79 1.85 1.77 1.67 1.58 1.57 1.55 1.44 1.50 1.65 1.80
1.65 1.50 1.47 1.43 1.36 1.33 1.27 1.20 1.16 1.10 1.11 1.18 1.13 1.01 0.91 0.86 0.77 0.80 0.78 0.76 0.75 0.77 0.80 0.90 1.11 1.26 1.36 1.40 1.47 1.57 1.61 1.56 1.54 1.51 1.51 1.49 1.51 1.54 1.46 1.35 1.42 1.52 1.66
1.55 1.47 1.42 1.31 1.24 1.14 1.11 1.11 1.14 1.04 0.97 0.94 0.98 0.89 0.77 0.75 0.75 0.73 0.71 0.70 0.77 0.84 0.88 1.01 1.15 1.25 1.33 1.40 1.44 1.44 1.42 1.40 1.34 1.32 1.32 1.28 1.29 1.33 1.38 1.38 1.45 1.51 1.56
1.47 1.46 1.37 1.31 1.25 1.18 1.11 1.09 1.15 1.09 1.00 0.96 0.93 0.87 0.78 0.75 0.71 0.67 0.67 0.65 0.70 0.81 0.91 1.10 1.19 1.23 1.34 1.45 1.43 1.39 1.34 1.27 1.24 1.19 1.18 1.16 1.12 1.16 1.27 1.35 1.43 1.52 1.54
1.25 1.30 1.31 1.24 1.19 1.21 1.23 1.19 1.16 1.22 1.18 1.03 0.90 0.83 0.78 0.77 0.75 0.71 0.70 0.69 0.76 0.84 1.01 1.19 1.24 1.25 1.29 1.32 1.34 1.36 1.34 1.26 1.21 1.21 1.19 1.17 1.15 1.15 1.22 1.28 1.34 1.38 1.42
1.18 1.19 1.19 1.22 1.18 1.14 1.18 1.20 1.17 1.20 1.24 1.18 1.03 0.90 0.88 0.88 0.89 0.90 0.82 0.78 0.84 0.90 0.97 1.04 1.12 1.20 1.23 1.22 1.25 1.24 1.27 1.29 1.25 1.26 1.26 1.22 1.20 1.20 1.21 1.20 1.20 1.17 1.20
0.96 1.03 1.09 1.12 1.14 1.13 1.11 1.13 1.17 1.22 1.25 1.22 1.10 1.01 1.04 1.06 1.03 1.00 0.91 0.87 0.88 0.91 0.96 1.04 1.09 1.11 1.14 1.15 1.16 1.16 1.16 1.19 1.19 1.17 1.14 1.15 1.14 1.13 1.14 1.13 1.13 1.13 1.13
0.80 0.80 0.82 0.82 0.87 0.89 0.92 0.96 0.99 1.09 1.15 1.11 1.01 1.00 1.12 1.09 1.11 1.05 0.97 0.96 0.98 0.97 1.00 1.07 1.07 1.05 1.03 1.06 1.15 1.20 1.23 1.21 1.15 1.12 1.09 1.06 1.02 1.01 0.98 0.97 0.96 1.00 1.05
0.71 0.65 0.61 0.61 0.67 0.75 0.77 0.78 0.83 0.87 0.93 0.94 0.89 0.88 0.98 0.96 0.98 0.94 0.91 0.93 0.95 0.96 1.00 1.10 1.11 1.06 1.04 1.05 1.15 1.22 1.24 1.23 1.18 1.14 1.10 1.06 0.99 0.95 0.95 0.93 0.93 0.97 1.03
0.65 0.61 0.56 0.55 0.59 0.71 0.77 0.78 0.82 0.82 0.83 0.85 0.83 0.80 0.81 0.88 0.92 0.95 0.96 0.95 0.92 0.86 0.83 0.90 0.98 1.00 1.02 1.01 1.01 1.01 1.07 1.12 1.12 1.10 1.15 1.13 1.05 0.97 0.96 0.92 0.90 0.91 0.95
0.62 0.61 0.60 0.57 0.61 0.70 0.73 0.71 0.70 0.71 0.74 0.80 0.75 0.71 0.73 0.78 0.81 0.83 0.88 0.93 0.94 0.90 0.82 0.82 0.86 0.88 0.90 0.94 0.92 0.87 0.86 0.94 0.97 1.00 1.08 1.08 1.01 0.96 0.96 0.91 0.89 0.89 0.92
0.57 0.61 0.64 0.61 0.63 0.68 0.72 0.70 0.70 0.70 0.74 0.81 0.77 0.72 0.73 0.69 0.67 0.66 0.71 0.77 0.77 0.75 0.70 0.65 0.65 0.66 0.69 0.71 0.71 0.73 0.83 0.85 0.84 0.88 0.93 0.94 0.88 0.88 0.92 0.87 0.85 0.88 0.91
0.57 0.62 0.68 0.71 0.74 0.75 0.76 0.77 0.77 0.75 0.76 0.77 0.77 0.81 0.79 0.72 0.66 0.64 0.66 0.67 0.65 0.62 0.59 0.59 0.58 0.57 0.56 0.54 0.58 0.66 0.68 0.64 0.65 0.72 0.78 0.83 0.81 0.81 0.86 0.89 0.84 0.88 0.89